Amateur Radio Satellites - All Passes

Search period start: 23 May 2013 19:58
Search period end: 24 May 2013 19:58
Location: Raleigh, 35.7720°N, 78.6390°W

Satellite Date Start Highest point End Downlink Frequencies (MHz)
Time Altitude Azimuth
UOSAT-12 23 May 20:15:31 20:19:38 31° 53° (NE) 20:23:44 437.025 FM, 437.400 FM
JAS-2 23 May 20:35:22 20:40:04 18° 59° (ENE) 20:44:47 435.800 - 435.900 CW/SSB, 435.910 FM
JAS-1B 23 May 20:42:18 20:51:37 64° 258° (WSW) 20:59:40 435.800 - 435.900 CW/SSB
HO-68 23 May 20:52:07 20:58:09 31° 64° (ENE) 21:04:12 435.675 MHz FM
SO-67 23 May 21:03:56 21:06:37 20° 265° (W) 21:09:19 435.3500 MHz FM
Oscar 11 23 May 21:24:51 21:27:50 19° 68° (ENE) 21:30:50 145.825 FM, Beacon 2401.500 USB
RS-15 23 May 21:32:27 21:37:11 13° 355° (N) 21:41:51 29.354 - 29.394 USB, Beacon 29.352 USB
UOSAT-12 23 May 21:55:55 21:59:39 25° 249° (WSW) 22:03:22 437.025 FM, 437.400 FM
OPAL 23 May 22:16:03 22:20:54 41° 69° (ENE) 22:25:43 ?
JAS-2 23 May 22:16:17 22:23:58 88° 76° (ENE) 22:31:52 435.800 - 435.900 CW/SSB, 435.910 FM
KITSAT 1 23 May 22:20:24 22:27:35 37° 108° (ESE) 22:34:48 435.175 FM
AO-40 23 May 22:34:27 04:39:40 50° 176° (S) 10:51:59 Beacon 2401.320
HO-68 23 May 22:38:48 22:45:33 46° 260° (W) 22:52:22 435.675 MHz FM
Oscar 11 23 May 22:59:56 23:03:48 32° 263° (W) 23:07:43 145.825 FM, Beacon 2401.500 USB
RS-15 23 May 23:47:44 23:56:00 23° 32° (NNE) 00:04:03 29.354 - 29.394 USB, Beacon 29.352 USB
OPAL 23 May 23:56:01 23:59:53 21° 263° (W) 00:03:45 ?
JAS-2 24 May 00:05:15 00:09:43 16° 271° (W) 00:14:16 435.800 - 435.900 CW/SSB, 435.910 FM
KITSAT 1 24 May 00:15:08 00:22:46 45° 305° (NW) 00:30:29 435.175 FM
MaSat-1 24 May 01:06:13 01:12:33 34° 107° (ESE) 01:18:02 437.345 MHz
Uribyol 2 24 May 01:54:43 01:56:33 12° 91° (E) 01:58:23 436.500 FM
Oscar 19 24 May 01:54:46 01:57:24 14° 92° (E) 02:00:00 437.125 CW, 437.150 USB
RS-15 24 May 01:59:30 02:10:37 76° 59° (ENE) 02:21:29 29.354 - 29.394 USB, Beacon 29.352 USB
KITSAT 1 24 May 02:18:34 02:20:34 11° 330° (NNW) 02:22:35 435.175 FM
ISS 24 May 02:29:14 02:32:31 89° 312° (NW) 02:35:51 145.800 FM
Oscar 16 24 May 02:32:30 02:37:24 42° 99° (E) 02:42:14 437.025 USB, Beacon 2401.1428
AO-27 24 May 02:44:25 02:49:18 39° 99° (E) 02:54:10 436.795 MHz FM
MaSat-1 24 May 02:48:01 02:54:38 41° 297° (WNW) 03:00:11 437.345 MHz
ITAMSAT 1 24 May 02:50:40 02:55:39 44° 99° (E) 03:00:37 435.822 SSB
Uosat F 24 May 03:22:58 03:23:54 10° 91° (E) 03:24:50 435.120 FM
AO-Echo 24 May 03:25:54 03:30:09 31° 98° (E) 03:34:29 ?
Uribyol 2 24 May 03:31:16 03:36:29 70° 285° (WNW) 03:41:40 436.500 FM
Oscar 19 24 May 03:32:01 03:37:05 58° 286° (WNW) 03:42:06 437.125 CW, 437.150 USB
ISS 24 May 04:07:58 04:09:40 13° 335° (NNW) 04:11:21 145.800 FM
Oscar 16 24 May 04:12:40 04:16:26 21° 294° (WNW) 04:20:10 437.025 USB, Beacon 2401.1428
RS-15 24 May 04:13:37 04:21:43 25° 258° (WSW) 04:29:47 29.354 - 29.394 USB, Beacon 29.352 USB
AO-27 24 May 04:24:34 04:28:32 23° 293° (WNW) 04:32:31 436.795 MHz FM
ITAMSAT 1 24 May 04:31:04 04:34:49 20° 294° (WNW) 04:38:32 435.822 SSB
TMSAT-1 24 May 04:33:06 04:37:53 33° 97° (E) 04:42:38 436.925 FM
Gurwin Techsat 1B 24 May 04:55:21 05:00:41 86° 103° (ESE) 05:06:00 435.225 FM
Uosat F 24 May 04:58:08 05:03:09 72° 285° (WNW) 05:08:09 435.120 FM
AO-Echo 24 May 05:05:01 05:08:47 24° 291° (WNW) 05:12:36 ?
STRAND 1 24 May 05:34:03 05:36:36 14° 63° (ENE) 05:39:10 ?
Saudisat 1A 24 May 05:45:13 05:49:45 87° 120° (ESE) 05:54:23 436.775 MHz
AO-7 24 May 06:03:34 06:11:52 63° 104° (ESE) 06:20:07 29.400 - 29.500 MHz
TMSAT-1 24 May 06:13:16 06:17:38 27° 292° (WNW) 06:21:59 436.925 FM
KITSAT 1 24 May 06:17:53 06:21:34 13° 34° (NE) 06:25:15 435.175 FM
Gurwin Techsat 1B 24 May 06:38:39 06:39:53 11° 299° (WNW) 06:41:07 435.225 FM
PCSat 24 May 07:01:13 07:06:20 46° 111° (ESE) 07:11:29 145.825 MHz
STRAND 1 24 May 07:10:13 07:15:14 63° 259° (WSW) 07:20:18 ?
Hamsat 24 May 07:13:53 07:16:16 14° 93° (E) 07:18:40 145.90 MHz
Saudisat 1A 24 May 07:28:27 07:30:05 12° 316° (NW) 07:31:44 436.775 MHz
SO-50 24 May 07:33:35 07:36:35 17° 109° (ESE) 07:39:33 436.795 FM
Sapphire 24 May 07:33:55 07:39:19 87° 115° (ESE) 07:44:46 437.095 MHz 1200 baud AX-25 AFSK
Oscar 10/S400 24 May 07:50:49 10:24:43 41° 265° (W) 17:58:08 145.825 - 145.975 CW/USB, Beacon 145.810 USB
AO-7 24 May 07:57:22 08:04:01 28° 301° (WNW) 08:10:41 29.400 - 29.500 MHz
KITSAT 1 24 May 08:10:59 08:18:58 56° 57° (ENE) 08:26:53 435.175 FM
JAS-1B 24 May 08:32:42 08:38:13 41° 98° (E) 08:43:30 435.800 - 435.900 CW/SSB
SO-67 24 May 08:32:44 08:36:04 36° 98° (E) 08:39:23 435.3500 MHz FM
PCSat 24 May 08:45:42 08:49:57 23° 308° (NW) 08:54:14 145.825 MHz
Hamsat 24 May 08:48:23 08:52:30 42° 287° (WNW) 08:56:37 145.90 MHz
ISS 24 May 09:00:30 09:03:32 31° 35° (NE) 09:06:34 145.800 FM
SO-50 24 May 09:12:09 09:16:49 49° 303° (WNW) 09:21:25 436.795 FM
Sapphire 24 May 09:20:52 09:23:28 13° 313° (NW) 09:26:05 437.095 MHz 1200 baud AX-25 AFSK
JAS-2 24 May 09:33:48 09:36:27 13° 86° (E) 09:38:59 435.800 - 435.900 CW/SSB, 435.910 FM
KITSAT 1 24 May 10:07:10 10:13:52 29° 254° (WSW) 10:20:33 435.175 FM
SO-67 24 May 10:08:01 10:09:10 11° 292° (WNW) 10:10:18 435.3500 MHz FM
HO-68 24 May 10:09:23 10:16:04 41° 99° (E) 10:22:43 435.675 MHz FM
JAS-1B 24 May 10:24:11 10:28:35 22° 296° (WNW) 10:32:48 435.800 - 435.900 CW/SSB
UOSAT-12 24 May 10:25:38 10:28:36 17° 109° (ESE) 10:31:34 437.025 FM, 437.400 FM
OPAL 24 May 10:31:03 10:33:10 13° 94° (E) 10:35:16 ?
ISS 24 May 10:37:25 10:40:08 23° 230° (SW) 10:42:51 145.800 FM
Oscar 11 24 May 10:50:17 10:54:35 54° 100° (E) 10:58:51 145.825 FM, Beacon 2401.500 USB
PANSAT 24 May 10:51:49 10:54:18 16° 164° (SSE) 10:56:46 not established
JAS-2 24 May 11:15:43 11:22:28 80° 285° (WNW) 11:28:21 435.800 - 435.900 CW/SSB, 435.910 FM
MaSat-1 24 May 11:36:35 11:39:31 40° 62° (ENE) 11:42:01 437.345 MHz
HO-68 24 May 11:57:16 12:03:34 35° 295° (WNW) 12:09:51 435.675 MHz FM
UOSAT-12 24 May 12:04:09 12:08:25 42° 304° (NW) 12:12:44 437.025 FM, 437.400 FM
OPAL 24 May 12:07:31 12:12:26 61° 288° (WNW) 12:17:17 ?
Oscar 11 24 May 12:28:36 12:30:18 12° 295° (WNW) 12:32:00 145.825 FM, Beacon 2401.500 USB
PANSAT 24 May 12:30:49 12:34:09 27° 176° (S) 12:37:28 not established
JAS-2 24 May 13:04:07 13:06:08 12° 305° (NW) 13:08:06 435.800 - 435.900 CW/SSB, 435.910 FM
Oscar 19 24 May 13:09:03 13:12:15 17° 65° (ENE) 13:15:26 437.125 CW, 437.150 USB
Uribyol 2 24 May 13:09:51 13:12:37 15° 63° (ENE) 13:15:23 436.500 FM
Oscar 16 24 May 13:46:40 13:51:36 46° 72° (ENE) 13:56:33 437.025 USB, Beacon 2401.1428
AO-27 24 May 13:59:53 14:04:46 44° 72° (ENE) 14:09:41 436.795 MHz FM
ITAMSAT 1 24 May 14:05:59 14:10:56 50° 72° (ENE) 14:15:56 435.822 SSB
PANSAT 24 May 14:10:54 14:14:04 24° 189° (S) 14:17:13 not established
RS-15 24 May 14:15:42 14:19:00 12° 96° (E) 14:22:15 29.354 - 29.394 USB, Beacon 29.352 USB
Saudisat 1A 24 May 14:15:43 14:19:46 31° 53° (NE) 14:23:44 436.775 MHz
Uosat F 24 May 14:33:35 14:35:27 12° 62° (ENE) 14:37:19 435.120 FM
AO-Echo 24 May 14:36:34 14:40:47 30° 70° (ENE) 14:44:55 ?
Gurwin Techsat 1B 24 May 14:38:05 14:39:42 11° 62° (ENE) 14:41:18 435.225 FM
Oscar 19 24 May 14:46:02 14:51:07 54° 260° (W) 14:56:13 437.125 CW, 437.150 USB
Uribyol 2 24 May 14:46:26 14:51:32 62° 259° (WSW) 14:56:41 436.500 FM
AO-7 24 May 15:13:03 15:16:06 13° 50° (NE) 15:19:09 29.400 - 29.500 MHz
Oscar 16 24 May 15:27:37 15:31:09 18° 266° (W) 15:34:41 437.025 USB, Beacon 2401.1428
AO-27 24 May 15:40:54 15:44:28 19° 266° (W) 15:48:03 436.795 MHz FM
ITAMSAT 1 24 May 15:47:29 15:50:42 17° 267° (W) 15:53:56 435.822 SSB
TMSAT-1 24 May 15:51:08 15:56:01 39° 71° (ENE) 16:00:55 436.925 FM
PANSAT 24 May 15:52:34 15:53:50 11° 201° (SSW) 15:55:06 not established
PCSat 24 May 15:52:37 15:56:46 22° 52° (NE) 16:00:53 145.825 MHz
Saudisat 1A 24 May 15:55:42 15:59:17 24° 249° (WSW) 16:02:49 436.775 MHz
Uosat F 24 May 16:08:38 16:13:37 71° 258° (WSW) 16:18:37 435.120 FM
Gurwin Techsat 1B 24 May 16:13:37 16:18:55 82° 257° (WSW) 16:24:15 435.225 FM
AO-Echo 24 May 16:15:40 16:19:33 24° 264° (W) 16:23:23 ?
RS-15 24 May 16:17:20 16:29:17 67° 113° (ESE) 16:40:45 29.354 - 29.394 USB, Beacon 29.352 USB
Sapphire 24 May 16:25:06 16:30:08 38° 57° (ENE) 16:35:09 437.095 MHz 1200 baud AX-25 AFSK
AO-7 24 May 16:59:08 17:07:17 65° 69° (ENE) 17:15:29 29.400 - 29.500 MHz
TMSAT-1 24 May 17:32:01 17:36:02 22° 266° (W) 17:40:06 436.925 FM
PCSat 24 May 17:35:13 17:40:27 49° 249° (WSW) 17:45:38 145.825 MHz
SO-50 24 May 17:47:00 17:51:31 67° 59° (ENE) 17:55:57 436.795 FM
Sapphire 24 May 18:08:56 18:13:20 26° 253° (WSW) 18:17:44 437.095 MHz 1200 baud AX-25 AFSK
RS-15 24 May 18:31:41 18:42:26 37° 315° (NW) 18:52:50 29.354 - 29.394 USB, Beacon 29.352 USB
AO-7 24 May 18:54:13 19:00:32 24° 265° (W) 19:06:55 29.400 - 29.500 MHz
JAS-1B 24 May 19:12:21 19:20:26 37° 68° (ENE) 19:27:29 435.800 - 435.900 CW/SSB
STRAND 1 24 May 19:23:49 19:28:53 56° 101° (E) 19:33:55 ?
SO-50 24 May 19:31:14 19:31:30 10° 254° (WSW) 19:31:46 436.795 FM
Hamsat 24 May 19:39:17 19:43:29 84° 259° (WSW) 19:47:45 145.90 MHz

Developed and maintained by Chris Peat, Heavens-Above GmbH. Please read the updated FAQ before sending e-mail. Imprint. DLR
